Location: Home
(42.5358°N, 72.7383°W)
Time: 20:05:41
(UTC-05:00)

Explorer 7 - Pass Details

Date: 08 December 2021
Orbit: 483 x 674 km, 50.3° (Epoch: 23 January)

Event Time Altitude Azimuth Distance (km) Brightness Sun altitude
Rises 08:38:59 0° 301° (WNW) 2,717 9.7 12.1°
Reaches altitude 10° 08:41:20 10° 307° (NW) 1,790 8.9 12.4°
Maximum altitude 08:45:17 50° 23° (NNE) 664 7.2 12.9°
Drops below altitude 10° 08:49:01 10° 100° (E) 1,698 10.3 13.4°
Sets 08:51:12 0° 106° (ESE) 2,561 11.2 13.6°
